Location: Ab? ar R?sh Ba?r?
(24.1861°N, 32.8847°E)
Time: 23:06:02
(UTC+00:00)

Milstar 3 Cent rocket - Visible Passes

Search period start: 10 December 2023 00:00
Search period end: 20 December 2023 00:00
Orbit: 707 x 5145 km, 28.3° (Epoch: 10 December)

Date Brightness Start Highest point End Pass type
(mag) Time Alt. Az. Time Alt. Az. Time Alt. Az.
10 Dec 4.6 01:10:46 15° E 01:10:46 15° E 01:11:48 10° E visible
10 Dec 3.5 03:39:44 10° W 03:44:30 37° SSW 03:52:08 10° SE visible
10 Dec 6.2 14:57:14 10° SSW 15:13:37 18° SSE 15:25:29 10° ESE visible
10 Dec 4.9 17:40:58 10° SW 18:00:34 39° SSE 18:01:40 39° SSE visible
10 Dec 6.1 20:28:22 10° WSW 20:30:30 15° WSW 20:30:30 15° WSW visible
11 Dec 2.7 01:59:11 50° SE 01:59:11 50° SE 02:03:36 10° ESE visible
11 Dec 5.7 15:47:59 10° SSW 16:08:42 26° SSE 16:21:10 10° ESE visible
11 Dec 4.9 18:34:19 10° SW 18:50:01 47° SSW 18:50:01 47° SSW visible
12 Dec 2.7 02:47:36 34° WSW 02:49:03 42° SSW 02:55:13 10° SE visible
12 Dec 5.2 16:40:10 10° SW 17:02:46 37° SSE 17:09:31 27° ESE visible
12 Dec 5.3 19:28:22 10° WSW 19:38:21 35° SW 19:38:21 35° SW visible
13 Dec 4.8 01:07:10 12° ESE 01:07:10 12° ESE 01:07:37 10° ESE visible
13 Dec 4.0 03:36:22 10° WSW 03:40:28 24° SSW 03:46:15 10° SSE visible
13 Dec 4.7 17:33:24 10° SW 17:56:06 51° SSE 17:57:52 49° SE visible
13 Dec 5.9 20:22:49 10° WSW 20:26:42 19° WSW 20:26:42 19° WSW visible
14 Dec 3.3 01:55:34 34° SE 01:55:34 34° SE 01:59:00 10° SE visible
14 Dec 5.6 15:39:24 10° SSW 16:04:13 35° SSE 16:17:22 13° E visible
14 Dec 4.6 18:27:30 10° WSW 18:46:13 60° SSW 18:46:13 60° SSW visible
15 Dec 3.2 02:43:59 25° SW 02:44:58 27° SSW 02:49:54 10° SE visible
15 Dec 5.0 16:32:15 10° SW 16:58:08 47° SSE 17:05:43 31° ESE visible
15 Dec 5.2 19:22:17 10° WSW 19:34:33 41° WSW 19:34:33 41° WSW visible
16 Dec 4.2 03:33:49 10° SW 03:36:27 14° SSW 03:39:35 10° S visible
16 Dec 4.5 17:26:07 10° SW 17:51:25 62° SSE 17:54:04 57° ESE visible
16 Dec 5.9 20:17:21 10° W 20:22:55 22° W 20:22:55 22° W visible
17 Dec 3.9 01:51:59 22° SSE 01:51:59 22° SSE 01:54:13 10° SE visible
17 Dec 5.5 15:31:20 10° SW 15:59:22 44° SSE 16:13:34 15° E visible
17 Dec 4.5 18:20:54 10° WSW 18:42:25 72° SSW 18:42:25 72° SSW visible
18 Dec 3.8 02:40:24 16° SSW 02:40:49 16° SSW 02:44:05 10° SSE visible
18 Dec 5.0 16:24:42 10° SW 16:53:12 58° SSE 17:01:55 33° E visible
18 Dec 5.1 19:16:20 10° WSW 19:30:45 47° W 19:30:45 47° W visible
19 Dec 4.5 17:19:08 10° WSW 17:46:32 73° SSE 17:50:15 60° E visible
19 Dec 5.8 20:11:54 10° W 20:19:05 26° W 20:19:05 26° W visible
